Tracking 27382 objects as of 4-Jun-2023
HD Live streaming from Space Station
objects crossing your sky now

STARLINK-5783

Track STARLINK-5783 now!
10-day predictions
STARLINK-5783 is classified as:


NORAD ID: 56022
Int'l Code: 2023-042AN
Perigee: 498.1 km
Apogee: 499.7 km
Inclination: 43.0 °
Period: 94.4 minutes
Semi major axis: 6869 km
RCS: Unknown
Launch date: March 24, 2022
Source: United States (US)
Launch site: AIR FORCE EASTERN TEST RANGE (AFETR)
Your satellite tracking list
Your tracking list is empty




NASA's NSSDC Master Catalog

Two Line Element Set (TLE):
1 56022U 23042AN  23155.91667824 -.00910075  00000-0 -38924-1 0  9996
2 56022  42.9975 125.7297 0001179 257.9174 333.3934 15.24670860 11648
Source of the keplerian elements: AFSPC